QTR6AA OTHH-OEJN

Flight info

Callsign QTR6AA
Flight time 1h 59m
Altitude 38000
Route ULIKA M430 KSA G782 RGB M309 VEMEM
Aircraft B77W/H-SDE1E2E3FGHIJ2J3J4J5M1RWXY/LB1D1

Departure

Time 2026-05-05 18:10
Airport Hamad International Airport (OTHH)

Arrival

Time 2026-05-05 20:10
Airport King Abdulaziz International Airport (OEJN)
Time Latitude Longitude Altitude Speed Heading
2026-05-05 17:54 25.26409 51.61344 35 ft 0 kts 248°
2026-05-05 18:02 25.26413 51.61355 34 ft 4 kts 248°
2026-05-05 18:02 25.26423 51.61383 33 ft 4 kts 248°
2026-05-05 18:02 25.26434 51.61411 33 ft 4 kts 248°
2026-05-05 18:03 25.26444 51.61431 31 ft 4 kts 199°
2026-05-05 18:03 25.26463 51.61426 33 ft 4 kts 146°
2026-05-05 18:03 25.26483 51.61413 33 ft 1 kts 158°
2026-05-05 18:03 25.26487 51.61411 33 ft 0 kts 158°
2026-05-05 18:05 25.26479 51.61415 33 ft 3 kts 158°
2026-05-05 18:06 25.26447 51.61429 32 ft 7 kts 158°
2026-05-05 18:06 25.26409 51.61460 35 ft 18 kts 125°
2026-05-05 18:06 25.26452 51.61666 35 ft 22 kts 67°
2026-05-05 18:06 25.26511 51.61821 35 ft 22 kts 67°
2026-05-05 18:07 25.26559 51.61979 34 ft 22 kts 89°
2026-05-05 18:07 25.26449 51.62077 34 ft 22 kts 158°
2026-05-05 18:07 25.26309 51.62139 34 ft 22 kts 158°
2026-05-05 18:07 25.26168 51.62202 34 ft 22 kts 158°
2026-05-05 18:08 25.26028 51.62266 34 ft 22 kts 158°
2026-05-05 18:08 25.25889 51.62327 34 ft 22 kts 158°
2026-05-05 18:08 25.25748 51.62389 34 ft 22 kts 158°
2026-05-05 18:08 25.25622 51.62472 33 ft 22 kts 109°
2026-05-05 18:09 25.25702 51.62593 31 ft 23 kts
2026-05-05 18:09 25.25763 51.62580 31 ft 15 kts 340°
2026-05-05 18:09 25.26167 51.62402 32 ft 109 kts 338°
2026-05-05 18:09 25.27139 51.61972 43 ft 186 kts 338°
2026-05-05 18:10 25.28430 51.61370 513 ft 210 kts 339°
2026-05-05 18:10 25.29773 51.60790 1361 ft 214 kts 340°
2026-05-05 18:10 25.31176 51.60180 2162 ft 219 kts 340°
2026-05-05 18:10 25.32607 51.59549 2970 ft 223 kts 341°
2026-05-05 18:11 25.34181 51.59288 3371 ft 243 kts 11°
2026-05-05 18:11 25.35840 51.59808 3998 ft 252 kts 17°
2026-05-05 18:11 25.37548 51.60349 4866 ft 260 kts 15°
2026-05-05 18:11 25.39352 51.60657 5582 ft 268 kts 353°
2026-05-05 18:12 25.41111 51.60002 6472 ft 268 kts 333°
2026-05-05 18:12 25.42906 51.59353 7064 ft 279 kts 352°
2026-05-05 18:12 25.44808 51.58961 7647 ft 287 kts 336°
2026-05-05 18:12 25.46365 51.57583 8525 ft 292 kts 303°
2026-05-05 18:13 25.46983 51.55493 9732 ft 289 kts 273°
2026-05-05 18:13 25.46603 51.53304 10641 ft 293 kts 251°
2026-05-05 18:13 25.45791 51.51221 11605 ft 296 kts 249°
2026-05-05 18:13 25.44958 51.49110 12380 ft 307 kts 250°
2026-05-05 18:14 25.44158 51.46824 12844 ft 327 kts 253°
2026-05-05 18:14 25.43419 51.44404 13622 ft 336 kts 255°
2026-05-05 18:14 25.42743 51.41906 14468 ft 341 kts 256°
2026-05-05 18:14 25.42115 51.39360 15393 ft 345 kts 257°
2026-05-05 18:15 25.41528 51.36813 16336 ft 348 kts 257°
2026-05-05 18:15 25.40951 51.34195 17255 ft 353 kts 257°
2026-05-05 18:15 25.40381 51.31533 18146 ft 358 kts 257°
2026-05-05 18:15 25.39811 51.28834 18973 ft 362 kts 257°
2026-05-05 18:16 25.39240 51.26114 19855 ft 364 kts 257°
2026-05-05 18:16 25.38668 51.23375 20769 ft 366 kts 257°
2026-05-05 18:16 25.38108 51.20620 21670 ft 368 kts 259°
2026-05-05 18:16 25.37804 51.17798 22527 ft 372 kts 266°
2026-05-05 18:17 25.37660 51.14969 23352 ft 375 kts 266°
2026-05-05 18:17 25.37520 51.12035 23677 ft 393 kts 266°
2026-05-05 18:17 25.37371 51.08940 23804 ft 413 kts 266°
2026-05-05 18:17 25.37211 51.05704 24022 ft 428 kts 266°
2026-05-05 18:18 25.37041 51.02383 24424 ft 437 kts 266°
2026-05-05 18:18 25.36863 50.99011 24973 ft 440 kts 266°
2026-05-05 18:18 25.36682 50.95631 25627 ft 441 kts 266°
2026-05-05 18:18 25.36498 50.92251 26298 ft 441 kts 266°
2026-05-05 18:19 25.36312 50.88862 26920 ft 442 kts 266°
2026-05-05 18:19 25.36124 50.85456 27457 ft 446 kts 266°
2026-05-05 18:19 25.35935 50.82069 27944 ft 449 kts 266°
2026-05-05 18:19 25.35743 50.78613 28463 ft 451 kts 266°
2026-05-05 18:20 25.35549 50.75145 29006 ft 453 kts 266°
2026-05-05 18:20 25.35353 50.71662 29502 ft 455 kts 266°
2026-05-05 18:20 25.35156 50.68168 29938 ft 456 kts 266°
2026-05-05 18:20 25.34957 50.64666 30364 ft 457 kts 265°
2026-05-05 18:21 25.34758 50.61167 30841 ft 455 kts 265°
2026-05-05 18:21 25.34559 50.57680 31364 ft 453 kts 265°
2026-05-05 18:21 25.34364 50.54262 31927 ft 450 kts 265°
2026-05-05 18:21 25.34167 50.50835 32615 ft 444 kts 265°
2026-05-05 18:22 25.33971 50.47443 33180 ft 441 kts 264°
2026-05-05 18:22 25.33775 50.44058 33626 ft 441 kts 264°
2026-05-05 18:22 25.33578 50.40679 34004 ft 441 kts 264°
2026-05-05 18:22 25.33380 50.37301 34380 ft 440 kts 264°
2026-05-05 18:23 25.33182 50.33933 34805 ft 438 kts 264°
2026-05-05 18:23 25.33063 50.31918 35053 ft 437 kts 264°
2026-05-05 18:23 25.32868 50.28617 35451 ft 435 kts 264°
2026-05-05 18:23 25.32671 50.25284 35821 ft 434 kts 264°
2026-05-05 18:24 25.32473 50.21960 36200 ft 433 kts 264°
2026-05-05 18:24 25.32275 50.18648 36574 ft 431 kts 264°
2026-05-05 18:24 25.32077 50.15352 36993 ft 428 kts 264°
2026-05-05 18:24 25.31880 50.12075 37383 ft 426 kts 264°
2026-05-05 18:25 25.31682 50.08808 37687 ft 426 kts 263°
2026-05-05 18:25 25.31283 50.02260 37771 ft 431 kts 263°
2026-05-05 18:26 25.30881 49.95686 37761 ft 426 kts 263°
2026-05-05 18:26 25.30480 49.89171 37776 ft 425 kts 263°
2026-05-05 18:27 25.30074 49.82649 37775 ft 426 kts 263°
2026-05-05 18:27 25.29664 49.76112 37779 ft 427 kts 263°
2026-05-05 18:28 25.29047 49.66322 37798 ft 428 kts 263°
2026-05-05 18:28 25.28629 49.59752 37808 ft 429 kts 263°
2026-05-05 18:29 25.28208 49.53178 37802 ft 429 kts 263°
2026-05-05 18:29 25.27769 49.46611 37795 ft 428 kts 262°
2026-05-05 18:30 25.27182 49.40112 37805 ft 428 kts 261°
2026-05-05 18:30 25.26560 49.33570 37799 ft 428 kts 261°
2026-05-05 18:31 25.25991 49.27425 37796 ft 429 kts 261°
2026-05-05 18:31 25.25390 49.20870 37794 ft 429 kts 261°
2026-05-05 18:32 25.24786 49.14311 37792 ft 430 kts 261°
2026-05-05 18:32 25.24185 49.07789 37800 ft 430 kts 261°
2026-05-05 18:33 25.23982 49.05567 37798 ft 430 kts 261°
2026-05-05 18:33 25.23905 49.04727 37800 ft 430 kts 261°
2026-05-05 18:34 25.23304 48.98160 37788 ft 430 kts 261°
2026-05-05 18:34 25.22704 48.91636 37791 ft 430 kts 261°
2026-05-05 18:35 25.22097 48.85072 37794 ft 430 kts 261°
2026-05-05 18:35 25.21486 48.78510 37798 ft 429 kts 261°
2026-05-05 18:36 25.20873 48.71954 37800 ft 429 kts 261°
2026-05-05 18:36 25.20258 48.65396 37807 ft 429 kts 261°
2026-05-05 18:37 25.19641 48.58890 37796 ft 428 kts 261°
2026-05-05 18:37 25.19005 48.52368 37794 ft 427 kts 261°
2026-05-05 18:38 25.18366 48.45867 37801 ft 425 kts 261°
2026-05-05 18:38 25.17729 48.39383 37811 ft 424 kts 261°
2026-05-05 18:39 25.17198 48.34003 37805 ft 424 kts 261°
2026-05-05 18:39 25.16926 48.31243 37806 ft 424 kts 261°
2026-05-05 18:40 25.16285 48.24785 37805 ft 423 kts 261°
2026-05-05 18:40 25.15642 48.18322 37819 ft 423 kts 261°
2026-05-05 18:41 25.15002 48.11905 37817 ft 424 kts 261°
2026-05-05 18:41 25.14360 48.05439 37818 ft 424 kts 261°
2026-05-05 18:42 25.13715 47.98970 37818 ft 424 kts 261°
2026-05-05 18:42 25.13067 47.92500 37826 ft 424 kts 261°
2026-05-05 18:43 25.12416 47.86027 37827 ft 425 kts 261°
2026-05-05 18:43 25.11739 47.79593 37841 ft 425 kts 260°
2026-05-05 18:44 25.10971 47.73131 37834 ft 425 kts 260°
2026-05-05 18:44 25.10198 47.66675 37840 ft 424 kts 260°
2026-05-05 18:45 25.09434 47.60229 37830 ft 423 kts 260°
2026-05-05 18:45 25.08679 47.53847 37836 ft 422 kts 260°
2026-05-05 18:46 25.07918 47.47439 37842 ft 421 kts 260°
2026-05-05 18:46 25.07152 47.41039 37848 ft 420 kts 260°
2026-05-05 18:47 25.06378 47.34652 37857 ft 420 kts 259°
2026-05-05 18:47 25.05600 47.28264 37853 ft 421 kts 259°
2026-05-05 18:48 25.04824 47.21912 37869 ft 421 kts 259°
2026-05-05 18:48 25.04040 47.15507 37866 ft 421 kts 259°
2026-05-05 18:49 25.03253 47.09100 37869 ft 422 kts 259°
2026-05-05 18:49 25.02462 47.02684 37877 ft 423 kts 259°
2026-05-05 18:50 25.01673 46.96305 37865 ft 423 kts 259°
2026-05-05 18:50 25.00876 46.89881 37880 ft 423 kts 259°
2026-05-05 18:51 25.00075 46.83450 37908 ft 424 kts 259°
2026-05-05 18:51 24.99271 46.77021 37901 ft 423 kts 259°
2026-05-05 18:52 24.98330 46.70626 37909 ft 421 kts 253°
2026-05-05 18:52 24.96359 46.64641 37915 ft 418 kts 245°
2026-05-05 18:53 24.93543 46.59068 37909 ft 416 kts 238°
2026-05-05 18:53 24.90391 46.53720 37915 ft 416 kts 237°
2026-05-05 18:54 24.87232 46.48366 37912 ft 418 kts 238°
2026-05-05 18:54 24.84099 46.43015 37903 ft 419 kts 238°
2026-05-05 18:55 24.80942 46.37606 37901 ft 420 kts 238°
2026-05-05 18:55 24.77781 46.32190 37907 ft 421 kts 238°
2026-05-05 18:56 24.74613 46.26770 37909 ft 421 kts 238°
2026-05-05 18:56 24.71682 46.21761 37913 ft 421 kts 238°
2026-05-05 18:57 24.69029 46.17232 37910 ft 420 kts 238°
2026-05-05 18:57 24.65351 46.10959 37909 ft 420 kts 237°
2026-05-05 18:58 24.62185 46.05567 37908 ft 419 kts 237°
2026-05-05 18:58 24.59556 46.01092 37903 ft 419 kts 237°
2026-05-05 18:59 24.55878 45.94841 37909 ft 419 kts 237°
2026-05-05 18:59 24.52713 45.89467 37909 ft 419 kts 237°
2026-05-05 19:00 24.50083 45.85005 37913 ft 419 kts 237°
2026-05-05 19:00 24.46915 45.79637 37887 ft 419 kts 237°
2026-05-05 19:01 24.43605 45.73173 37914 ft 418 kts 244°
2026-05-05 19:01 24.41073 45.67425 37896 ft 418 kts 243°
2026-05-05 19:02 24.38955 45.62653 37895 ft 419 kts 243°
2026-05-05 19:02 24.36397 45.56913 37915 ft 419 kts 243°
2026-05-05 19:03 24.33797 45.51091 37905 ft 419 kts 243°
2026-05-05 19:03 24.31649 45.46285 37904 ft 419 kts 243°
2026-05-05 19:04 24.29082 45.40548 37919 ft 419 kts 243°
2026-05-05 19:04 24.26531 45.34852 37919 ft 419 kts 243°
2026-05-05 19:05 24.23962 45.29126 37933 ft 419 kts 243°
2026-05-05 19:05 24.21391 45.23400 37922 ft 419 kts 243°
2026-05-05 19:06 24.18816 45.17671 37939 ft 419 kts 243°
2026-05-05 19:06 24.16256 45.11984 37945 ft 419 kts 243°
2026-05-05 19:07 24.13676 45.06251 37947 ft 420 kts 243°
2026-05-05 19:07 24.11093 45.00509 37947 ft 421 kts 243°
2026-05-05 19:08 24.08506 44.94766 37943 ft 421 kts 243°
2026-05-05 19:08 24.05936 44.89068 37962 ft 420 kts 243°
2026-05-05 19:09 24.03350 44.83340 37946 ft 419 kts 243°
2026-05-05 19:09 24.00766 44.77623 37945 ft 419 kts 243°
2026-05-05 19:10 23.98182 44.71914 37944 ft 419 kts 243°
2026-05-05 19:10 23.95611 44.66238 37962 ft 420 kts 243°
2026-05-05 19:11 23.93013 44.60502 37976 ft 422 kts 244°
2026-05-05 19:11 23.90795 44.54559 37963 ft 423 kts 248°
2026-05-05 19:12 23.88702 44.48551 37957 ft 423 kts 248°
2026-05-05 19:12 23.86614 44.42586 37948 ft 423 kts 248°
2026-05-05 19:13 23.84504 44.36587 37960 ft 423 kts 248°
2026-05-05 19:13 23.82389 44.30591 37952 ft 423 kts 248°
2026-05-05 19:14 23.80271 44.24596 37944 ft 423 kts 248°
2026-05-05 19:14 23.78168 44.18654 37937 ft 422 kts 248°
2026-05-05 19:15 23.76056 44.12691 37913 ft 420 kts 248°
2026-05-05 19:15 23.73946 44.06746 37943 ft 420 kts 248°
2026-05-05 19:16 23.71833 44.00796 37953 ft 421 kts 248°
2026-05-05 19:16 23.69727 43.94877 37943 ft 422 kts 248°
2026-05-05 19:17 23.67601 43.88911 37945 ft 422 kts 248°
2026-05-05 19:17 23.65471 43.82939 37963 ft 422 kts 248°
2026-05-05 19:18 23.63338 43.76969 37946 ft 422 kts 248°
2026-05-05 19:18 23.61217 43.71040 37948 ft 423 kts 248°
2026-05-05 19:19 23.59077 43.65068 37967 ft 423 kts 248°
2026-05-05 19:19 23.56931 43.59087 37963 ft 424 kts 248°
2026-05-05 19:20 23.54784 43.53109 37962 ft 423 kts 247°
2026-05-05 19:20 23.52655 43.47190 37966 ft 422 kts 248°
2026-05-05 19:21 23.50510 43.41238 37979 ft 422 kts 247°
2026-05-05 19:21 23.48366 43.35293 37959 ft 422 kts 247°
2026-05-05 19:22 23.46220 43.29350 37980 ft 421 kts 247°
2026-05-05 19:22 23.44089 43.23459 37988 ft 421 kts 247°
2026-05-05 19:23 23.41941 43.17526 37996 ft 421 kts 247°
2026-05-05 19:23 23.39790 43.11599 37996 ft 421 kts 247°
2026-05-05 19:24 23.37635 43.05676 37979 ft 421 kts 247°
2026-05-05 19:24 23.35479 42.99756 38003 ft 421 kts 247°
2026-05-05 19:25 23.33334 42.93873 37998 ft 421 kts 247°
2026-05-05 19:25 23.31173 42.87951 37995 ft 421 kts 247°
2026-05-05 19:26 23.29007 42.82025 37998 ft 422 kts 247°
2026-05-05 19:26 23.26837 42.76097 37998 ft 422 kts 247°
2026-05-05 19:27 23.24659 42.70154 38006 ft 424 kts 247°
2026-05-05 19:27 23.22488 42.64238 38006 ft 425 kts 247°
2026-05-05 19:28 23.20293 42.58264 38019 ft 426 kts 247°
2026-05-05 19:28 23.18096 42.52291 38013 ft 426 kts 247°
2026-05-05 19:29 23.15894 42.46314 38001 ft 426 kts 246°
2026-05-05 19:29 23.13708 42.40385 38019 ft 426 kts 246°
2026-05-05 19:30 23.11510 42.34413 38011 ft 425 kts 247°
2026-05-05 19:30 23.09372 42.28426 38011 ft 425 kts 247°
2026-05-05 19:31 23.07247 42.22444 38016 ft 424 kts 247°
2026-05-05 19:31 23.05130 42.16512 38019 ft 424 kts 247°
2026-05-05 19:32 23.02996 42.10553 38011 ft 423 kts 247°
2026-05-05 19:32 23.00863 42.04604 38014 ft 423 kts 247°
2026-05-05 19:33 22.98726 41.98652 38023 ft 423 kts 247°
2026-05-05 19:33 22.96599 41.92734 38026 ft 424 kts 247°
2026-05-05 19:34 22.94453 41.86777 38027 ft 424 kts 247°
2026-05-05 19:35 22.91228 41.77843 38027 ft 424 kts 247°
2026-05-05 19:35 22.89073 41.71887 38026 ft 424 kts 247°
2026-05-05 19:36 22.86930 41.65971 38037 ft 424 kts 247°
2026-05-05 19:36 22.84771 41.60011 38041 ft 425 kts 247°
2026-05-05 19:37 22.82608 41.54051 38053 ft 425 kts 247°
2026-05-05 19:37 22.80445 41.48095 38039 ft 424 kts 247°
2026-05-05 19:38 22.78284 41.42155 38045 ft 422 kts 247°
2026-05-05 19:38 22.77227 41.39252 37836 ft 420 kts 247°
2026-05-05 19:38 22.76153 41.36304 37441 ft 421 kts 247°
2026-05-05 19:38 22.75076 41.33349 37060 ft 422 kts 247°
2026-05-05 19:39 22.73997 41.30392 36704 ft 422 kts 247°
2026-05-05 19:39 22.72916 41.27431 36312 ft 423 kts 247°
2026-05-05 19:39 22.71830 41.24460 35914 ft 425 kts 247°
2026-05-05 19:39 22.70742 41.21482 35528 ft 425 kts 247°
2026-05-05 19:40 22.69655 41.18508 35216 ft 424 kts 247°
2026-05-05 19:40 22.68586 41.15586 34979 ft 421 kts 247°
2026-05-05 19:40 22.67510 41.12649 34782 ft 418 kts 247°
2026-05-05 19:40 22.66440 41.09731 34571 ft 415 kts 247°
2026-05-05 19:41 22.65377 41.06833 34347 ft 413 kts 247°
2026-05-05 19:41 22.63267 41.01091 34351 ft 412 kts 248°
2026-05-05 19:42 22.61127 40.95270 34364 ft 418 kts 248°
2026-05-05 19:42 22.58996 40.89476 34309 ft 414 kts 248°
2026-05-05 19:42 22.57944 40.86621 33972 ft 406 kts 248°
2026-05-05 19:43 22.56894 40.83772 33442 ft 409 kts 248°
2026-05-05 19:43 22.55837 40.80912 33049 ft 409 kts 247°
2026-05-05 19:43 22.54783 40.78064 32767 ft 407 kts 247°
2026-05-05 19:43 22.53736 40.75235 32513 ft 403 kts 247°
2026-05-05 19:44 22.52696 40.72427 32236 ft 401 kts 247°
2026-05-05 19:44 22.51675 40.69669 31932 ft 400 kts 247°
2026-05-05 19:44 22.50641 40.66881 31578 ft 400 kts 247°
2026-05-05 19:44 22.49606 40.64090 31204 ft 400 kts 247°
2026-05-05 19:45 22.48571 40.61301 30889 ft 399 kts 247°
2026-05-05 19:45 22.47540 40.58521 30618 ft 397 kts 247°
2026-05-05 19:45 22.46512 40.55755 30357 ft 395 kts 247°
2026-05-05 19:45 22.45489 40.53003 30080 ft 394 kts 247°
2026-05-05 19:46 22.44470 40.50262 29744 ft 392 kts 247°
2026-05-05 19:46 22.43454 40.47531 29420 ft 391 kts 247°
2026-05-05 19:46 22.42441 40.44810 29138 ft 389 kts 247°
2026-05-05 19:46 22.41447 40.42143 28866 ft 387 kts 247°
2026-05-05 19:47 22.40444 40.39453 28520 ft 385 kts 247°
2026-05-05 19:47 22.39446 40.36775 28003 ft 383 kts 247°
2026-05-05 19:47 22.38454 40.34117 27481 ft 380 kts 247°
2026-05-05 19:47 22.37466 40.31472 26962 ft 378 kts 247°
2026-05-05 19:48 22.36485 40.28847 26446 ft 376 kts 246°
2026-05-05 19:48 22.35508 40.26234 25954 ft 374 kts 246°
2026-05-05 19:48 22.34536 40.23633 25452 ft 373 kts 246°
2026-05-05 19:48 22.33564 40.21037 24959 ft 373 kts 246°
2026-05-05 19:49 22.32605 40.18474 24445 ft 373 kts 246°
2026-05-05 19:49 22.31632 40.15877 23942 ft 373 kts 246°
2026-05-05 19:49 22.30657 40.13277 23398 ft 374 kts 246°
2026-05-05 19:49 22.29682 40.10675 22832 ft 373 kts 246°
2026-05-05 19:50 22.28709 40.08082 22314 ft 372 kts 246°
2026-05-05 19:50 22.27729 40.05508 21807 ft 369 kts 244°
2026-05-05 19:50 22.26468 40.03122 21324 ft 365 kts 233°
2026-05-05 19:50 22.24896 40.00987 20826 ft 362 kts 227°
2026-05-05 19:51 22.23082 39.99117 20352 ft 360 kts 219°
2026-05-05 19:51 22.21172 39.97445 19890 ft 358 kts 218°
2026-05-05 19:51 22.19229 39.95765 19416 ft 357 kts 218°
2026-05-05 19:51 22.17288 39.94090 18942 ft 357 kts 218°
2026-05-05 19:52 22.15352 39.92416 18438 ft 357 kts 218°
2026-05-05 19:52 22.13419 39.90738 17921 ft 357 kts 218°
2026-05-05 19:52 22.11489 39.89060 17407 ft 355 kts 218°
2026-05-05 19:52 22.09573 39.87390 16917 ft 354 kts 218°
2026-05-05 19:53 22.07664 39.85726 16444 ft 352 kts 218°
2026-05-05 19:53 22.05792 39.84093 15948 ft 350 kts 218°
2026-05-05 19:53 22.03902 39.82442 15484 ft 349 kts 218°
2026-05-05 19:53 22.02020 39.80800 15015 ft 348 kts 218°
2026-05-05 19:54 22.00144 39.79164 14556 ft 346 kts 218°
2026-05-05 19:54 21.98272 39.77531 14085 ft 346 kts 218°
2026-05-05 19:54 21.96426 39.75921 13562 ft 334 kts 218°
2026-05-05 19:54 21.94673 39.74393 13160 ft 315 kts 218°
2026-05-05 19:55 21.93013 39.72945 12769 ft 300 kts 218°
2026-05-05 19:55 21.91424 39.71561 12375 ft 289 kts 218°
2026-05-05 19:55 21.89877 39.70215 12004 ft 284 kts 218°
2026-05-05 19:55 21.88348 39.68884 11654 ft 290 kts 218°
2026-05-05 19:56 21.86733 39.67481 11279 ft 310 kts 218°
2026-05-05 19:56 21.85013 39.65986 10824 ft 321 kts 218°
2026-05-05 19:56 21.83301 39.64497 10560 ft 308 kts 219°
2026-05-05 19:56 21.81689 39.63095 10398 ft 287 kts 218°
2026-05-05 19:57 21.80191 39.61790 10258 ft 267 kts 218°
2026-05-05 19:57 21.78791 39.60573 10148 ft 252 kts 218°
2026-05-05 19:57 21.77397 39.59363 10067 ft 267 kts 218°
2026-05-05 19:57 21.75926 39.58087 9732 ft 279 kts 218°
2026-05-05 19:58 21.74423 39.56783 9390 ft 275 kts 219°
2026-05-05 19:58 21.72953 39.55507 9038 ft 267 kts 219°
2026-05-05 19:58 21.71533 39.54275 8709 ft 258 kts 219°
2026-05-05 19:58 21.70159 39.53083 8385 ft 251 kts 219°
2026-05-05 19:59 21.68786 39.51891 8107 ft 258 kts 219°
2026-05-05 19:59 21.67355 39.50650 7796 ft 269 kts 220°
2026-05-05 19:59 21.65905 39.49392 7453 ft 266 kts 220°
2026-05-05 19:59 21.64501 39.48177 7113 ft 258 kts 220°
2026-05-05 20:00 21.63122 39.46983 6795 ft 251 kts 220°
2026-05-05 20:00 21.61774 39.45816 6511 ft 249 kts 221°
2026-05-05 20:00 21.60374 39.44600 6226 ft 268 kts 220°
2026-05-05 20:00 21.58900 39.43322 5822 ft 276 kts 221°
2026-05-05 20:01 21.57387 39.42011 5391 ft 282 kts 220°
2026-05-05 20:01 21.55853 39.40685 5008 ft 283 kts 220°
2026-05-05 20:01 21.54357 39.39393 4641 ft 267 kts 221°
2026-05-05 20:01 21.52969 39.38194 4333 ft 252 kts 222°
2026-05-05 20:02 21.51630 39.37036 4107 ft 251 kts 221°
2026-05-05 20:02 21.50255 39.35843 3919 ft 258 kts 221°
2026-05-05 20:02 21.48835 39.34616 3539 ft 265 kts 222°
2026-05-05 20:02 21.47411 39.33386 3347 ft 259 kts 221°
2026-05-05 20:03 21.46028 39.32198 3231 ft 250 kts 222°
2026-05-05 20:03 21.44919 39.30891 3074 ft 226 kts 250°
2026-05-05 20:03 21.44636 39.29353 2988 ft 201 kts 280°
2026-05-05 20:03 21.44968 39.27938 2879 ft 193 kts 300°
2026-05-05 20:04 21.45806 39.26878 2719 ft 185 kts 331°
2026-05-05 20:04 21.46919 39.26242 2654 ft 185 kts 334°
2026-05-05 20:04 21.48070 39.25591 2457 ft 188 kts 334°
2026-05-05 20:04 21.49242 39.24992 2287 ft 184 kts 339°
2026-05-05 20:05 21.50407 39.24484 2130 ft 176 kts 341°
2026-05-05 20:05 21.51511 39.24036 2092 ft 166 kts 342°
2026-05-05 20:05 21.52555 39.23620 2029 ft 154 kts 342°
2026-05-05 20:05 21.53542 39.23231 1972 ft 149 kts 342°
2026-05-05 20:06 21.54501 39.22853 1907 ft 144 kts 341°
2026-05-05 20:06 21.55417 39.22491 1855 ft 141 kts 341°
2026-05-05 20:06 21.56332 39.22128 1815 ft 140 kts 341°
2026-05-05 20:06 21.57239 39.21769 1781 ft 137 kts 341°
2026-05-05 20:07 21.58116 39.21423 1731 ft 132 kts 341°
2026-05-05 20:07 21.58985 39.21080 1586 ft 133 kts 342°
2026-05-05 20:07 21.59848 39.20740 1421 ft 132 kts 341°
2026-05-05 20:07 21.60711 39.20396 1231 ft 135 kts 341°
2026-05-05 20:08 21.61612 39.20032 996 ft 142 kts 340°
2026-05-05 20:08 21.62550 39.19648 868 ft 142 kts 339°
2026-05-05 20:08 21.63462 39.19278 683 ft 144 kts 341°
2026-05-05 20:08 21.64413 39.18914 513 ft 148 kts 343°
2026-05-05 20:09 21.65389 39.18537 312 ft 148 kts 342°
2026-05-05 20:09 21.66356 39.18158 152 ft 146 kts 341°
2026-05-05 20:09 21.67282 39.17795 39 ft 134 kts 341°
2026-05-05 20:09 21.67969 39.17529 37 ft 78 kts 340°
2026-05-05 20:10 21.68261 39.17399 33 ft 30 kts 326°
2026-05-05 20:10 21.68379 39.17257 31 ft 18 kts 309°
2026-05-05 20:10 21.68385 39.17153 33 ft 15 kts 207°
2026-05-05 20:10 21.68351 39.17151 33 ft 1 kts 167°
2026-05-05 20:11 21.68350 39.17152 33 ft 0 kts 167°
2026-05-05 20:14 21.68268 39.17173 33 ft 16 kts 163°
2026-05-05 20:14 21.68173 39.17213 34 ft 7 kts 158°
2026-05-05 20:14 21.68092 39.17247 35 ft 16 kts 158°
2026-05-05 20:15 21.68014 39.17261 35 ft 12 kts 217°
2026-05-05 20:15 21.67965 39.17162 35 ft 16 kts 249°
2026-05-05 20:15 21.67926 39.17053 35 ft 16 kts 249°
2026-05-05 20:15 21.67888 39.16945 35 ft 16 kts 249°
2026-05-05 20:16 21.67856 39.16854 35 ft 15 kts 248°
2026-05-05 20:16 21.67800 39.16804 35 ft 11 kts 182°
2026-05-05 20:16 21.67735 39.16797 35 ft 10 kts 204°
2026-05-05 20:16 21.67691 39.16728 36 ft 16 kts 248°
2026-05-05 20:17 21.67653 39.16621 36 ft 16 kts 250°
2026-05-05 20:17 21.67616 39.16511 36 ft 16 kts 250°
2026-05-05 20:17 21.67588 39.16441 36 ft 11 kts 233°
2026-05-05 20:17 21.67542 39.16421 37 ft 9 kts 171°
2026-05-05 20:18 21.67476 39.16443 37 ft 13 kts 160°
2026-05-05 20:18 21.67411 39.16468 36 ft 9 kts 144°
2026-05-05 20:18 21.67404 39.16510 36 ft 9 kts 80°
2026-05-05 20:18 21.67416 39.16556 36 ft 7 kts 71°
2026-05-05 20:19 21.67423 39.16577 36 ft 0 kts 70°